TAP89WT LPPT-LPMA

Flight info

Callsign TAP89WT
Flight time 0h 52m
Altitude 37000
Route ULVOT DCT GALPA DCT RAKUN
Aircraft A320/M-SDE3FGHIRWY/LB1

Departure

Time 2026-05-06 14:24
Airport Lisbon Humberto Delgado Airport (LPPT)

Arrival

Time 2026-05-06 15:16
Airport Cristiano Ronaldo International Airport (LPMA)
Time Latitude Longitude Altitude Speed Heading
2026-05-06 13:35 38.76947 -9.13613 347 ft 0 kts 261°
2026-05-06 14:06 38.76948 -9.13600 347 ft 4 kts 258°
2026-05-06 14:06 38.76957 -9.13567 351 ft 4 kts 242°
2026-05-06 14:06 38.76972 -9.13540 356 ft 4 kts 219°
2026-05-06 14:06 38.76994 -9.13525 356 ft 4 kts 178°
2026-05-06 14:07 38.77001 -9.13526 355 ft 0 kts 167°
2026-05-06 14:18 38.76996 -9.13524 347 ft 2 kts 167°
2026-05-06 14:18 38.76985 -9.13521 353 ft 1 kts 167°
2026-05-06 14:18 38.76982 -9.13520 352 ft 0 kts 167°
2026-05-06 14:19 38.76917 -9.13501 357 ft 40 kts 166°
2026-05-06 14:19 38.76699 -9.13442 354 ft 18 kts 175°
2026-05-06 14:19 38.76669 -9.13461 354 ft 4 kts 216°
2026-05-06 14:19 38.76651 -9.13514 350 ft 9 kts 256°
2026-05-06 14:20 38.76643 -9.13555 356 ft 0 kts 256°
2026-05-06 14:21 38.76643 -9.13556 356 ft 0 kts 256°
2026-05-06 14:21 38.76638 -9.13584 350 ft 6 kts 258°
2026-05-06 14:21 38.76626 -9.13659 352 ft 11 kts 258°
2026-05-06 14:21 38.76608 -9.13778 347 ft 16 kts 258°
2026-05-06 14:22 38.76581 -9.13937 350 ft 20 kts 259°
2026-05-06 14:22 38.76513 -9.14088 354 ft 20 kts 239°
2026-05-06 14:22 38.76523 -9.14257 349 ft 20 kts 292°
2026-05-06 14:22 38.76540 -9.14311 348 ft 6 kts 292°
2026-05-06 14:23 38.76587 -9.14383 334 ft 15 kts 325°
2026-05-06 14:23 38.76687 -9.14366 335 ft 16 kts 22°
2026-05-06 14:23 38.76813 -9.14298 341 ft 36 kts 23°
2026-05-06 14:23 38.77277 -9.14051 348 ft 104 kts 23°
2026-05-06 14:24 38.78118 -9.13604 358 ft 154 kts 21°
2026-05-06 14:24 38.79056 -9.13088 1158 ft 138 kts 18°
2026-05-06 14:24 38.79936 -9.12603 1905 ft 137 kts 17°
2026-05-06 14:24 38.80841 -9.12125 2495 ft 149 kts 18°
2026-05-06 14:25 38.81858 -9.11504 2957 ft 175 kts 25°
2026-05-06 14:25 38.82985 -9.10647 3407 ft 200 kts 28°
2026-05-06 14:25 38.84253 -9.09674 3874 ft 225 kts 27°
2026-05-06 14:25 38.85572 -9.08408 4327 ft 251 kts 49°
2026-05-06 14:26 38.86335 -9.06335 5068 ft 266 kts 79°
2026-05-06 14:26 38.86224 -9.03958 5948 ft 274 kts 107°
2026-05-06 14:26 38.85251 -9.01836 6795 ft 282 kts 133°
2026-05-06 14:26 38.83641 -9.00384 7706 ft 287 kts 158°
2026-05-06 14:27 38.81675 -8.99910 8596 ft 290 kts 184°
2026-05-06 14:27 38.79733 -9.00547 9507 ft 290 kts 209°
2026-05-06 14:27 38.78187 -9.02129 10346 ft 290 kts 229°
2026-05-06 14:27 38.77280 -9.03440 10911 ft 290 kts 230°
2026-05-06 14:28 38.75761 -9.05645 11910 ft 291 kts 229°
2026-05-06 14:28 38.74419 -9.07589 12765 ft 292 kts 230°
2026-05-06 14:28 38.73066 -9.09543 13578 ft 295 kts 230°
2026-05-06 14:28 38.71692 -9.11519 14316 ft 298 kts 229°
2026-05-06 14:29 38.70298 -9.13517 15000 ft 301 kts 229°
2026-05-06 14:29 38.68914 -9.15496 15725 ft 302 kts 229°
2026-05-06 14:29 38.67510 -9.17503 16466 ft 304 kts 229°
2026-05-06 14:29 38.66088 -9.19535 17124 ft 308 kts 229°
2026-05-06 14:30 38.64620 -9.21634 17422 ft 325 kts 229°
2026-05-06 14:30 38.63070 -9.23850 17570 ft 344 kts 229°
2026-05-06 14:30 38.61432 -9.26193 17728 ft 362 kts 229°
2026-05-06 14:30 38.59725 -9.28633 18038 ft 373 kts 229°
2026-05-06 14:31 38.57981 -9.31122 18538 ft 378 kts 229°
2026-05-06 14:31 38.56223 -9.33627 19082 ft 379 kts 229°
2026-05-06 14:31 38.54451 -9.36150 19592 ft 383 kts 229°
2026-05-06 14:31 38.52656 -9.38703 20086 ft 386 kts 229°
2026-05-06 14:32 38.50854 -9.41265 20637 ft 388 kts 229°
2026-05-06 14:32 38.49045 -9.43835 21166 ft 390 kts 229°
2026-05-06 14:32 38.47226 -9.46420 21635 ft 393 kts 229°
2026-05-06 14:32 38.45383 -9.49040 21998 ft 400 kts 229°
2026-05-06 14:33 38.43516 -9.51686 22129 ft 411 kts 229°
2026-05-06 14:33 38.41583 -9.54419 22272 ft 421 kts 229°
2026-05-06 14:33 38.39598 -9.57224 22412 ft 429 kts 229°
2026-05-06 14:33 38.37577 -9.60078 22544 ft 437 kts 229°
2026-05-06 14:34 38.35522 -9.62980 22688 ft 444 kts 229°
2026-05-06 14:34 38.33438 -9.65920 22816 ft 450 kts 229°
2026-05-06 14:34 38.31320 -9.68905 22965 ft 456 kts 229°
2026-05-06 14:34 38.29177 -9.71924 23108 ft 461 kts 229°
2026-05-06 14:35 38.27043 -9.74929 23262 ft 464 kts 229°
2026-05-06 14:35 38.24868 -9.77985 23467 ft 467 kts 229°
2026-05-06 14:35 38.22679 -9.81054 23694 ft 469 kts 229°
2026-05-06 14:35 38.20483 -9.84133 23907 ft 470 kts 229°
2026-05-06 14:36 38.18282 -9.87218 24007 ft 472 kts 229°
2026-05-06 14:36 38.16072 -9.90316 24030 ft 472 kts 229°
2026-05-06 14:36 38.13874 -9.93393 24028 ft 472 kts 229°
2026-05-06 14:36 38.11663 -9.96484 24030 ft 472 kts 229°
2026-05-06 14:37 38.09453 -9.99568 24035 ft 471 kts 229°
2026-05-06 14:37 38.07243 -10.02646 24035 ft 471 kts 229°
2026-05-06 14:37 38.05030 -10.05725 24035 ft 471 kts 229°
2026-05-06 14:37 38.02829 -10.08790 24035 ft 471 kts 229°
2026-05-06 14:38 38.00606 -10.11882 24168 ft 473 kts 229°
2026-05-06 14:38 37.98386 -10.14965 24412 ft 474 kts 229°
2026-05-06 14:38 37.96157 -10.18060 24640 ft 476 kts 229°
2026-05-06 14:38 37.93927 -10.21159 24893 ft 476 kts 229°
2026-05-06 14:39 37.91693 -10.24255 25207 ft 476 kts 229°
2026-05-06 14:39 37.89460 -10.27344 25530 ft 475 kts 229°
2026-05-06 14:39 37.87229 -10.30426 25870 ft 474 kts 229°
2026-05-06 14:39 37.85002 -10.33497 26214 ft 473 kts 229°
2026-05-06 14:40 37.82850 -10.36462 26557 ft 472 kts 229°
2026-05-06 14:40 37.80632 -10.39522 26912 ft 471 kts 229°
2026-05-06 14:40 37.78421 -10.42572 27269 ft 470 kts 229°
2026-05-06 14:40 37.76209 -10.45619 27635 ft 469 kts 229°
2026-05-06 14:41 37.74007 -10.48649 28002 ft 468 kts 230°
2026-05-06 14:41 37.71804 -10.51675 28358 ft 467 kts 230°
2026-05-06 14:41 37.69922 -10.54259 28655 ft 467 kts 230°
2026-05-06 14:41 37.67722 -10.57278 29025 ft 466 kts 230°
2026-05-06 14:42 37.65529 -10.60285 29403 ft 465 kts 230°
2026-05-06 14:42 37.63343 -10.63279 29797 ft 464 kts 230°
2026-05-06 14:42 37.61160 -10.66263 30171 ft 463 kts 230°
2026-05-06 14:42 37.58971 -10.69249 30509 ft 462 kts 230°
2026-05-06 14:43 37.56793 -10.72220 30840 ft 460 kts 230°
2026-05-06 14:43 37.54621 -10.75180 31180 ft 459 kts 230°
2026-05-06 14:43 37.52449 -10.78136 31521 ft 458 kts 230°
2026-05-06 14:43 37.50287 -10.81079 31865 ft 457 kts 230°
2026-05-06 14:44 37.48158 -10.83976 32208 ft 455 kts 230°
2026-05-06 14:44 37.46010 -10.86895 32556 ft 454 kts 230°
2026-05-06 14:44 37.43869 -10.89803 32871 ft 453 kts 229°
2026-05-06 14:45 36.70819 -11.96110 33296 ft 24973 kts 229°
2026-05-06 14:45 36.53934 -12.20602 33784 ft 441 kts 231°
2026-05-06 14:45 36.51467 -12.23930 34582 ft 25925 kts 229°
2026-05-06 14:45 35.33395 -13.76321 34519 ft 426 kts 232°
2026-05-06 14:46 34.78751 -14.63711 34945 ft 0 kts 233°
2026-05-06 14:46 34.67267 -14.81042 35255 ft 0 kts 228°
2026-05-06 14:46 34.66118 -14.82542 36107 ft 391 kts 233°
2026-05-06 14:46 34.64249 -14.84959 36225 ft 396 kts 231°
2026-05-06 14:47 34.62073 -14.87097 36384 ft 406 kts 222°
2026-05-06 14:47 34.59778 -14.89104 36608 ft 408 kts 222°
2026-05-06 14:47 34.57464 -14.91116 36774 ft 409 kts 222°
2026-05-06 14:47 34.55172 -14.93099 36990 ft 410 kts 222°
2026-05-06 14:48 34.52836 -14.95123 37083 ft 414 kts 223°
2026-05-06 14:48 34.48070 -14.99252 37123 ft 427 kts 222°
2026-05-06 14:49 34.43163 -15.03500 37118 ft 440 kts 222°
2026-05-06 14:49 34.38116 -15.07868 37121 ft 452 kts 222°
2026-05-06 14:50 34.32925 -15.12343 37113 ft 463 kts 221°
2026-05-06 14:50 34.27621 -15.16904 37107 ft 473 kts 221°
2026-05-06 14:50 34.24910 -15.19234 36521 ft 479 kts 221°
2026-05-06 14:51 34.22209 -15.21557 35573 ft 485 kts 220°
2026-05-06 14:51 34.19457 -15.23922 34772 ft 486 kts 220°
2026-05-06 14:51 34.16698 -15.26285 34005 ft 485 kts 220°
2026-05-06 14:51 34.13951 -15.28633 33092 ft 486 kts 220°
2026-05-06 14:52 34.11201 -15.31027 32081 ft 486 kts 223°
2026-05-06 14:52 34.08584 -15.33619 31028 ft 488 kts 225°
2026-05-06 14:52 34.05979 -15.36280 29917 ft 492 kts 226°
2026-05-06 14:52 34.03384 -15.38986 28692 ft 495 kts 226°
2026-05-06 14:53 34.00787 -15.41721 27520 ft 496 kts 226°
2026-05-06 14:53 33.98183 -15.44458 26373 ft 496 kts 225°
2026-05-06 14:53 33.95569 -15.47187 25229 ft 496 kts 225°
2026-05-06 14:53 33.92954 -15.49899 24081 ft 496 kts 224°
2026-05-06 14:54 33.90336 -15.52603 23047 ft 492 kts 224°
2026-05-06 14:54 33.87787 -15.55230 22142 ft 485 kts 224°
2026-05-06 14:54 33.85232 -15.57857 21280 ft 478 kts 224°
2026-05-06 14:54 33.82715 -15.60445 20413 ft 473 kts 224°
2026-05-06 14:55 33.80228 -15.62997 19588 ft 467 kts 224°
2026-05-06 14:55 33.77761 -15.65526 18740 ft 463 kts 224°
2026-05-06 14:55 33.75319 -15.68034 17856 ft 459 kts 223°
2026-05-06 14:55 33.72907 -15.70515 17028 ft 454 kts 223°
2026-05-06 14:56 33.70518 -15.72969 16240 ft 449 kts 223°
2026-05-06 14:56 33.68160 -15.75389 15501 ft 443 kts 223°
2026-05-06 14:56 33.65860 -15.77748 14778 ft 439 kts 223°
2026-05-06 14:56 33.63550 -15.80115 14046 ft 434 kts 223°
2026-05-06 14:57 33.61263 -15.82455 13245 ft 430 kts 223°
2026-05-06 14:57 33.58994 -15.84772 12539 ft 423 kts 223°
2026-05-06 14:57 33.56792 -15.87015 12104 ft 410 kts 223°
2026-05-06 14:57 33.54630 -15.89220 11444 ft 404 kts 223°
2026-05-06 14:58 33.52501 -15.91391 10741 ft 400 kts 223°
2026-05-06 14:58 33.50392 -15.93543 10027 ft 397 kts 222°
2026-05-06 14:58 33.48297 -15.95680 9274 ft 393 kts 223°
2026-05-06 14:58 33.46225 -15.97791 8528 ft 389 kts 222°
2026-05-06 14:59 33.44173 -15.99879 7795 ft 385 kts 222°
2026-05-06 14:59 33.42168 -16.01919 7083 ft 381 kts 222°
2026-05-06 14:59 33.40165 -16.03954 6458 ft 374 kts 223°
2026-05-06 14:59 33.38196 -16.05956 5707 ft 370 kts 222°
2026-05-06 15:00 33.36244 -16.07939 4888 ft 367 kts 222°
2026-05-06 15:00 33.34306 -16.09908 4308 ft 358 kts 221°
2026-05-06 15:00 33.32457 -16.11782 4134 ft 339 kts 222°
2026-05-06 15:00 33.30713 -16.13550 4114 ft 317 kts 221°
2026-05-06 15:01 33.29082 -16.15198 4120 ft 297 kts 221°
2026-05-06 15:01 33.27553 -16.16741 4117 ft 280 kts 222°
2026-05-06 15:01 33.26079 -16.18232 4118 ft 276 kts 222°
2026-05-06 15:01 33.24620 -16.19711 4115 ft 274 kts 222°
2026-05-06 15:02 33.23178 -16.21172 4116 ft 274 kts 222°
2026-05-06 15:02 33.21720 -16.22648 4115 ft 274 kts 222°
2026-05-06 15:02 33.20258 -16.24125 4115 ft 275 kts 222°
2026-05-06 15:02 33.18799 -16.25598 4114 ft 275 kts 222°
2026-05-06 15:03 33.17340 -16.27069 4113 ft 274 kts 221°
2026-05-06 15:03 33.15881 -16.28536 4112 ft 275 kts 222°
2026-05-06 15:03 33.14418 -16.30011 4111 ft 275 kts 222°
2026-05-06 15:03 33.12954 -16.31486 4112 ft 275 kts 222°
2026-05-06 15:04 33.11510 -16.32940 4112 ft 274 kts 222°
2026-05-06 15:04 33.10059 -16.34402 4112 ft 273 kts 222°
2026-05-06 15:04 33.08608 -16.35865 4107 ft 272 kts 222°
2026-05-06 15:04 33.07158 -16.37327 4110 ft 273 kts 223°
2026-05-06 15:05 33.05742 -16.38751 4107 ft 257 kts 222°
2026-05-06 15:05 33.04419 -16.40078 4122 ft 240 kts 222°
2026-05-06 15:05 33.03174 -16.41325 4123 ft 231 kts 222°
2026-05-06 15:05 33.01949 -16.42553 4124 ft 230 kts 222°
2026-05-06 15:06 33.00724 -16.43781 4123 ft 230 kts 223°
2026-05-06 15:06 32.99499 -16.45013 4123 ft 231 kts 223°
2026-05-06 15:06 32.98273 -16.46244 4124 ft 230 kts 223°
2026-05-06 15:06 32.97051 -16.47471 4125 ft 230 kts 222°
2026-05-06 15:07 32.95849 -16.48675 4124 ft 229 kts 223°
2026-05-06 15:07 32.94630 -16.49895 4121 ft 229 kts 223°
2026-05-06 15:07 32.93412 -16.51116 4120 ft 230 kts 223°
2026-05-06 15:07 32.92214 -16.52318 4116 ft 219 kts 223°
2026-05-06 15:08 32.91077 -16.53455 4117 ft 209 kts 223°
2026-05-06 15:08 32.89965 -16.54567 4121 ft 208 kts 223°
2026-05-06 15:08 32.88873 -16.55659 4120 ft 207 kts 223°
2026-05-06 15:08 32.87770 -16.56761 4117 ft 207 kts 223°
2026-05-06 15:09 32.86665 -16.57867 4118 ft 207 kts 224°
2026-05-06 15:09 32.85575 -16.58956 4117 ft 207 kts 223°
2026-05-06 15:09 32.84399 -16.59964 4117 ft 209 kts 218°
2026-05-06 15:09 32.83208 -16.60949 4117 ft 209 kts 217°
2026-05-06 15:10 32.82031 -16.61925 4132 ft 199 kts 218°
2026-05-06 15:10 32.80934 -16.62830 4038 ft 187 kts 218°
2026-05-06 15:10 32.79823 -16.63750 3455 ft 204 kts 217°
2026-05-06 15:10 32.78621 -16.64747 2964 ft 211 kts 217°
2026-05-06 15:11 32.77479 -16.65689 2981 ft 190 kts 218°
2026-05-06 15:11 32.76425 -16.66555 2825 ft 184 kts 217°
2026-05-06 15:11 32.75366 -16.67433 2449 ft 191 kts 218°
2026-05-06 15:11 32.74254 -16.68357 2087 ft 199 kts 216°
2026-05-06 15:12 32.73108 -16.69305 1706 ft 202 kts 216°
2026-05-06 15:12 32.71973 -16.70248 1463 ft 197 kts 215°
2026-05-06 15:12 32.70835 -16.71190 1080 ft 199 kts 216°
2026-05-06 15:12 32.69736 -16.72094 1021 ft 181 kts 217°
2026-05-06 15:13 32.68773 -16.72885 1237 ft 160 kts 215°
2026-05-06 15:13 32.67894 -16.73664 1530 ft 164 kts 220°
2026-05-06 15:13 32.66998 -16.74591 1734 ft 179 kts 224°
2026-05-06 15:13 32.66063 -16.75687 1751 ft 194 kts 231°
2026-05-06 15:14 32.65337 -16.76859 1694 ft 162 kts 242°
2026-05-06 15:14 32.64966 -16.78069 1465 ft 150 kts 263°
2026-05-06 15:14 32.65028 -16.79237 1194 ft 141 kts 294°
2026-05-06 15:14 32.65591 -16.80093 962 ft 129 kts 332°
2026-05-06 15:15 32.66456 -16.80332 956 ft 128 kts 360°
2026-05-06 15:15 32.67343 -16.80138 739 ft 130 kts 19°
2026-05-06 15:15 32.68054 -16.79485 478 ft 130 kts 45°
2026-05-06 15:15 32.68687 -16.78740 301 ft 127 kts 39°
2026-05-06 15:16 32.69298 -16.78011 179 ft 117 kts 40°
2026-05-06 15:16 32.69666 -16.77594 176 ft 6 kts 45°
2026-05-06 15:16 32.69705 -16.77548 176 ft 14 kts 45°
2026-05-06 15:16 32.69779 -16.77458 176 ft 16 kts 45°
2026-05-06 15:17 32.69864 -16.77358 176 ft 18 kts 45°
2026-05-06 15:17 32.69952 -16.77226 176 ft 20 kts 86°
2026-05-06 15:17 32.69926 -16.77184 176 ft 3 kts 161°
2026-05-06 15:17 32.69905 -16.77180 176 ft 5 kts 179°
2026-05-06 15:18 32.69837 -16.77192 176 ft 18 kts 205°
2026-05-06 15:18 32.69718 -16.77327 176 ft 25 kts 225°
2026-05-06 15:18 32.69606 -16.77467 176 ft 14 kts 226°
2026-05-06 15:18 32.69540 -16.77548 176 ft 13 kts 227°
2026-05-06 15:19 32.69460 -16.77649 176 ft 36 kts 226°
2026-05-06 15:19 32.69356 -16.77760 176 ft 8 kts 189°
2026-05-06 15:19 32.69315 -16.77738 176 ft 5 kts 121°
2026-05-06 15:19 32.69309 -16.77732 176 ft 0 kts 137°